Location: Ettringen
(48.1054°N, 10.6545°E)
Time: 02:57:40
(UTC+00:00)

IRS-P3 - Pass Details

Date: 18 November 2025
Orbit: 810 x 816 km, 99.0° (Epoch: 04 December)

Event Time Altitude Azimuth Distance (km) Brightness Sun altitude
Rises 16:26:48 0° 147° (SSE) 3,331 7.2 -8.6°
Reaches altitude 10° 16:29:11 10° 142° (SE) 2,402 6.4 -8.9°
Maximum altitude 16:34:18 51° 68° (ENE) 1,026 4.3 -9.8°
Drops below altitude 10° 16:39:27 10° 354° (N) 2,415 6.5 -10.6°
Sets 16:41:51 0° 349° (N) 3,350 7.3 -11.0°
